Flag for Taiwan Weather past 2 weeks in Taichung, Taiwan

Now
75 °F

Sprinkles. Fog.


Feels Like: 73 °F
Forecast: 76 / 81 °F
Wind: 9 mph from North

Location: Chiang Kai Shek

Current Time: May 24, 2015 at 4:00:57 PM

Latest Report: May 24, 2015 at 3:30 PM


Visibility: 2 mi

Pressure: 29.68 "Hg

Humidity: 100%

Dew point: 75 °F

Location of TaichungLocation

Historic Weather in Taichung — Graph

°F

Taichung temperature yesterday

Maximum temperature yesterday: 77 °F (at 3:50 AM)
Minimum temperature yesterday: 75 °F (at 12:00 AM)
Average temperature yesterday: 76 °F

Past Weeks' High & Low Weather Summary

 TemperatureHumidityPressure
High91 °F (May 18, 12:00 PM)100% (May 11, 2:00 AM)29.95 "Hg (May 11, 2:00 AM)
Low68 °F (May 12, 8:30 AM)40% (May 12, 8:30 PM)29.68 "Hg (May 19, 2:30 PM)
Average78 °F82%29.82 "Hg
* Reported May 9 2:00 PM — May 24 2:48 PM, Taichung, Weather by CustomWeather, © 2015

Note: Actual official high and low records may vary slightly from our data, if they occured in-between our weather recording intervals... More about our weather records

Advertising

Taichung weather history for previous 24 hours

 ConditionsComfort  
Time TempWeatherWind HumidityBarometerVisibility
2:48 PM
Sun, May 24
75 °FSprinkles. Fog.8 mph100%29.71 "Hg2 mi
2:30 PM75 °FSprinkles. Fog.5 mph100%29.71 "Hg2 mi
2:00 PM75 °FRain showers. Fog.12 mph100%29.71 "Hg1 mi
1:51 PM75 °FRain showers. Fog.12 mph100%29.71 "Hg1 mi
1:30 PM75 °FSprinkles. Broken clouds.12 mph100%29.71 "Hg2 mi
1:00 PM77 °FSprinkles. Broken clouds.14 mph94%29.71 "Hg4 mi
12:45 PM77 °FRain showers. Broken clouds.15 mph94%29.71 "Hg2 mi
12:30 PM75 °FSprinkles. Broken clouds.15 mph100%29.71 "Hg3 mi
12:00 PM77 °FSprinkles. Broken clouds.15 mph94%29.71 "Hg4 mi
11:30 AM77 °FSprinkles. Broken clouds.16 mph94%29.74 "Hg4 mi
11:00 AM77 °FSprinkles. Broken clouds.14 mph94%29.71 "Hg4 mi
10:54 AM75 °FSprinkles. Broken clouds.13 mph100%29.74 "Hg4 mi
10:30 AM77 °FRain showers. Broken clouds.10 mph94%29.74 "Hg2 mi
10:00 AM77 °FSprinkles. Broken clouds.12 mph94%29.74 "Hg4 mi
9:48 AM75 °FSprinkles. Broken clouds.13 mph100%29.74 "Hg4 mi
9:30 AM75 °FSprinkles. Cloudy.9 mph100%29.74 "Hg4 mi
9:00 AM75 °FSprinkles. Cloudy.9 mph100%29.71 "Hg2 mi
8:30 AM75 °FSprinkles. Cloudy.10 mph100%29.71 "Hg4 mi
8:00 AM75 °FSprinkles. Broken clouds.16 mph100%29.71 "Hg3 mi
7:30 AM75 °FSprinkles. Partly sunny.17 mph100%29.71 "Hg5 mi
7:00 AM75 °FRain showers. Cloudy.10 mph100%29.71 "Hg2 mi
6:30 AM75 °FRain showers. Broken clouds.8 mph100%29.68 "Hg2 mi
6:00 AM75 °FRain showers. Broken clouds.8 mph100%29.68 "Hg2 mi
5:00 AM75 °FRain showers. Partly cloudy.7 mph100%29.68 "Hg3 mi
4:47 AM75 °FRain showers. Partly cloudy.8 mph100%29.68 "Hg3 mi
4:30 AM75 °FLots of rain. Partly cloudy.10 mph100%29.68 "Hg2 mi
4:00 AM75 °FLots of rain. Partly cloudy.10 mph100%29.68 "Hg2 mi
3:55 AM75 °FLots of rain. Partly cloudy.9 mph100%29.68 "Hg2 mi
3:00 AM75 °FRain showers. Partly cloudy.7 mph100%29.68 "Hg3 mi
2:30 AM75 °FRain showers. Partly cloudy.9 mph100%29.68 "Hg3 mi
2:00 AM77 °FRain showers. Partly cloudy.8 mph94%29.68 "Hg3 mi
1:30 AM77 °FRain showers. Partly cloudy.8 mph94%29.68 "Hg2 mi
1:00 AM77 °FSprinkles. Partly cloudy.10 mph94%29.71 "Hg2 mi
12:51 AM77 °FSprinkles. Partly cloudy.10 mph94%29.71 "Hg3 mi
12:30 AM77 °FSprinkles. Partly cloudy.13 mph94%29.71 "Hg4 mi
12:00 AM77 °FSprinkles. Partly cloudy.8 mph94%29.71 "HgN/A
11:54 PM
Sat, May 23
77 °FSprinkles. Partly cloudy.7 mph94%29.71 "HgN/A
11:30 PM75 °FSprinkles. Partly cloudy.8 mph100%29.71 "Hg5 mi
11:00 PM75 °FRain showers. Fog.5 mph100%29.74 "Hg1 mi
10:47 PM75 °FRain showers. Fog.3 mph100%29.74 "Hg1 mi
10:00 PM75 °FSprinkles. Fog.3 mph100%29.74 "Hg1 mi
9:53 PM75 °FSprinkles. Fog.6 mph100%29.74 "Hg1 mi
9:30 PM75 °FSprinkles. Fog.2 mph100%29.74 "Hg2 mi
9:00 PM75 °FSprinkles. Fog.No wind100%29.74 "Hg2 mi
8:30 PM75 °FSprinkles. Fog.2 mph100%29.71 "Hg2 mi
8:00 PM75 °FSprinkles. Fog.3 mph100%29.71 "Hg2 mi
7:30 PM75 °FSprinkles. Fog.1 mph100%29.71 "Hg2 mi
7:00 PM75 °FSprinkles. Fog.2 mph100%29.71 "Hg3 mi
6:30 PM75 °FSprinkles. Fog.3 mph100%29.71 "Hg3 mi
6:00 PM75 °FSprinkles. Fog.3 mph100%29.71 "Hg3 mi
5:30 PM75 °FSprinkles. Fog.5 mph100%29.71 "Hg2 mi
5:00 PM75 °FRain showers. Fog.6 mph100%29.68 "Hg1 mi
4:52 PM75 °FLots of rain. Fog.1 mph100%29.71 "Hg1 mi
4:00 PM75 °FSprinkles. Fog.3 mph100%29.71 "Hg2 mi
Weather by CustomWeather, © 2015

See weather overviewHow to use our weather pages